timestamp,surface_pressure_avg,surface_temp_avg,battery_voltage,lat,long
2018-11-24 00:00:00+00:00,378.4596,5.79,13.05,47.84626,-54.09684
2018-11-24 00:10:00+00:00,371.6512,5.75,12.97,47.84626,-54.09684
2018-11-24 00:20:00+00:00,369.3812,5.73,13.05,47.84626,-54.09684
2018-11-24 00:30:00+00:00,367.0062,5.75,13.05,47.84626,-54.09684
2018-11-24 00:40:00+00:00,360.4012,5.73,13.05,47.84626,-54.09684
2018-11-24 00:50:00+00:00,351.4063,5.7,13.05,47.84626,-54.09684
2018-11-24 01:00:00+00:00,345.3214,5.7,13.05,47.84626,-54.09684
2018-11-24 01:10:00+00:00,346.9946,5.7,12.97,47.84626,-54.09684
2018-11-24 01:20:00+00:00,341.6813,5.7,13.05,47.84626,-54.09684
2018-11-24 01:30:00+00:00,332.473,5.7,13.05,47.84626,-54.09684
2018-11-24 01:40:00+00:00,332.833,5.7,13.05,47.84626,-54.09684
2018-11-24 01:50:00+00:00,333.2797,5.7,13.05,47.84626,-54.09684
2018-11-24 02:00:00+00:00,320.5846,5.7,12.97,47.84626,-54.09684
2018-11-24 02:10:00+00:00,310.658,5.7,12.97,47.84626,-54.09684
2018-11-24 02:20:00+00:00,308.7263,5.56,13.05,47.84626,-54.09684
2018-11-24 02:30:00+00:00,296.5446,5.3,13.05,47.84626,-54.09684
2018-11-24 02:40:00+00:00,278.6614,5.2,13.05,47.84626,-54.09684
2018-11-24 02:50:00+00:00,277.7497,5.26,13.05,47.84626,-54.09684
2018-11-24 03:00:00+00:00,277.0714,5.3,12.97,47.84626,-54.09684
2018-11-24 03:10:00+00:00,261.6414,5.42,12.89,47.84626,-54.09684
2018-11-24 03:20:00+00:00,247.2414,5.4,12.97,47.84626,-54.09684
2018-11-24 03:30:00+00:00,251.1997,5.03,13.05,47.84626,-54.09684
2018-11-24 03:40:00+00:00,243.5114,4.7,13.05,47.84626,-54.09684
2018-11-24 03:50:00+00:00,225.0265,4.5,13.05,47.84626,-54.09684
2018-11-24 04:00:00+00:00,221.2564,4.54,12.97,47.84626,-54.09684
2018-11-24 04:10:00+00:00,220.8814,4.6,12.89,47.84626,-54.09684
2018-11-24 04:20:00+00:00,211.6014,4.6,12.97,47.84626,-54.09684
2018-11-24 04:30:00+00:00,205.5381,4.63,12.97,47.84626,-54.09684
2018-11-24 04:40:00+00:00,209.3131,4.85,13.05,47.84626,-54.09684
2018-11-24 04:50:00+00:00,207.2931,4.9,13.05,47.84626,-54.09684
2018-11-24 05:00:00+00:00,200.1131,4.7,12.97,47.84626,-54.09684
2018-11-24 05:10:00+00:00,202.2731,4.76,12.89,47.84626,-54.09684
2018-11-24 05:20:00+00:00,204.1031,4.9,12.97,47.84626,-54.09684
2018-11-24 05:30:00+00:00,196.9481,4.7,12.97,47.84626,-54.09684
2018-11-24 05:40:00+00:00,194.4698,4.6,13.05,47.84626,-54.09684
2018-11-24 05:50:00+00:00,199.3265,4.6,13.05,47.84626,-54.09684
2018-11-24 06:00:00+00:00,199.1231,4.6,12.97,47.84626,-54.09684
2018-11-24 06:10:00+00:00,194.8831,4.65,12.89,47.84626,-54.09684
2018-11-24 06:20:00+00:00,202.6548,4.83,12.97,47.84626,-54.09684
2018-11-24 06:30:00+00:00,212.1497,4.8,12.97,47.84626,-54.09684
2018-11-24 06:40:00+00:00,211.5815,4.8,13.05,47.84626,-54.09684
2018-11-24 06:50:00+00:00,212.4347,4.87,13.05,47.84626,-54.09684
2018-11-24 07:00:00+00:00,222.1414,4.8,12.97,47.84626,-54.09684
2018-11-24 07:10:00+00:00,231.0714,4.8,12.89,47.84626,-54.09684
2018-11-24 07:20:00+00:00,233.5414,4.9,12.97,47.84626,-54.09684
2018-11-24 07:30:00+00:00,237.8331,4.99,12.97,47.84626,-54.09684
2018-11-24 07:40:00+00:00,246.8981,5.0,13.05,47.84626,-54.09684
2018-11-24 07:50:00+00:00,251.8181,5.0,13.05,47.84626,-54.09684
2018-11-24 08:00:00+00:00,254.4114,5.0,12.97,47.84626,-54.09684
2018-11-24 08:10:00+00:00,264.2347,5.0,12.89,47.84626,-54.09684
2018-11-24 08:20:00+00:00,273.1681,5.06,12.97,47.84626,-54.09684
2018-11-24 08:30:00+00:00,276.723,5.0,12.97,47.84626,-54.09684
2018-11-24 08:40:00+00:00,283.1781,5.09,13.05,47.84626,-54.09684
2018-11-24 08:50:00+00:00,293.1447,5.2,13.05,47.84626,-54.09684
2018-11-24 09:00:00+00:00,294.9697,5.2,12.97,47.84626,-54.09684
2018-11-24 09:10:00+00:00,296.608,5.16,12.89,47.84626,-54.09684
2018-11-24 09:20:00+00:00,305.573,5.1,12.97,47.84626,-54.09684
2018-11-24 09:30:00+00:00,314.2831,5.1,12.97,47.84626,-54.09684
2018-11-24 09:40:00+00:00,317.4946,5.1,13.05,47.84626,-54.09684
2018-11-24 09:50:00+00:00,325.3597,5.1,13.05,47.84626,-54.09684
2018-11-24 10:00:00+00:00,339.4096,5.1,12.97,47.84626,-54.09684
2018-11-24 10:10:00+00:00,348.1896,5.28,12.89,47.84626,-54.09684
2018-11-24 10:20:00+00:00,349.958,5.5,12.97,47.84626,-54.09684
2018-11-24 10:30:00+00:00,359.558,5.5,12.97,47.84626,-54.09684
2018-11-24 10:40:00+00:00,372.9013,5.5,12.97,47.84626,-54.09684
2018-11-24 10:50:00+00:00,378.3463,5.5,13.05,47.84626,-54.09684
2018-11-24 11:00:00+00:00,380.068,5.5,12.97,47.84626,-54.09684
2018-11-24 11:10:00+00:00,390.3329,5.4,12.89,47.84626,-54.09684
2018-11-24 11:20:00+00:00,399.3947,5.39,12.97,47.84626,-54.09684
2018-11-24 11:30:00+00:00,397.2695,5.39,12.97,47.84626,-54.09684
2018-11-24 11:40:00+00:00,399.4612,5.4,12.97,47.84626,-54.09684
2018-11-24 11:50:00+00:00,403.2279,5.4,13.05,47.84626,-54.09684
2018-11-24 12:00:00+00:00,401.5745,5.55,12.97,47.84626,-54.09684
2018-11-24 12:10:00+00:00,399.7896,5.6,12.89,47.84626,-54.09684
2018-11-24 12:20:00+00:00,402.6879,5.66,12.97,47.84626,-54.09684
2018-11-24 12:30:00+00:00,402.503,5.7,12.97,47.84626,-54.09684
2018-11-24 12:40:00+00:00,402.1528,5.7,13.05,47.84626,-54.09684
2018-11-24 12:50:00+00:00,400.5245,5.7,13.05,47.84626,-54.09684
2018-11-24 13:00:00+00:00,397.7195,5.7,13.05,47.84626,-54.09684
2018-11-24 13:10:00+00:00,393.0029,5.6,12.97,47.84626,-54.09684
2018-11-24 13:20:00+00:00,388.7795,5.5,13.05,47.84626,-54.09684
2018-11-24 13:30:00+00:00,382.8546,5.6,13.05,47.84626,-54.09684
2018-11-24 13:40:00+00:00,375.793,5.6,13.05,47.84626,-54.09684
2018-11-24 13:50:00+00:00,373.923,5.5,13.13,47.84626,-54.09684
2018-11-24 14:00:00+00:00,369.4579,5.4,13.05,47.84626,-54.09684
2018-11-24 14:10:00+00:00,360.3297,5.2,12.97,47.84626,-54.09684
2018-11-24 14:20:00+00:00,355.473,5.2,13.13,47.84626,-54.09684
2018-11-24 14:30:00+00:00,351.9262,5.19,13.21,47.84626,-54.09684
2018-11-24 14:40:00+00:00,341.1997,5.17,13.29,47.84626,-54.09684
2018-11-24 14:50:00+00:00,327.7913,5.15,13.37,47.84626,-54.09684
2018-11-24 15:00:00+00:00,317.2713,5.15,13.37,47.84626,-54.09684
2018-11-24 15:10:00+00:00,303.8663,5.15,13.44,47.84626,-54.09684
2018-11-24 15:20:00+00:00,291.4413,5.13,13.68,47.84626,-54.09684
2018-11-24 15:30:00+00:00,281.6764,5.08,13.76,47.84626,-54.09684
2018-11-24 15:40:00+00:00,270.5564,5.0,13.84,47.84626,-54.09684
2018-11-24 15:50:00+00:00,255.8397,5.0,14.16,47.84626,-54.09684
2018-11-24 16:00:00+00:00,246.5847,5.0,13.92,47.84626,-54.09684
2018-11-24 16:10:00+00:00,240.1364,5.0,13.76,47.84626,-54.09684
2018-11-24 16:20:00+00:00,231.2014,5.0,13.84,47.84626,-54.09684
2018-11-24 16:30:00+00:00,223.1531,5.0,14.0,47.84626,-54.09684
2018-11-24 16:40:00+00:00,221.1664,4.9,14.64,47.84626,-54.09684
2018-11-24 16:50:00+00:00,216.5748,4.8,14.64,47.84626,-54.09684
2018-11-24 17:00:00+00:00,207.0581,4.4,14.32,47.84626,-54.09684
2018-11-24 17:10:00+00:00,200.7431,4.4,14.16,47.84626,-54.09684
2018-11-24 17:20:00+00:00,196.4965,4.57,14.56,47.84626,-54.09684
2018-11-24 17:30:00+00:00,191.1664,4.6,14.96,47.84626,-54.09684
2018-11-24 17:40:00+00:00,187.3648,4.8,15.99,47.84626,-54.09684
2018-11-24 17:50:00+00:00,188.6448,4.9,14.56,47.84626,-54.09684
2018-11-24 18:00:00+00:00,188.5364,5.0,14.72,47.84626,-54.09684
2018-11-24 18:10:00+00:00,184.9748,5.1,14.64,47.84626,-54.09684
2018-11-24 18:20:00+00:00,183.5931,5.13,14.56,47.84626,-54.09684
2018-11-24 18:30:00+00:00,183.8831,5.1,14.64,47.84626,-54.09684
2018-11-24 18:40:00+00:00,181.2048,5.1,14.72,47.84626,-54.09684
2018-11-24 18:50:00+00:00,181.5231,5.1,14.64,47.84626,-54.09684
2018-11-24 19:00:00+00:00,184.0581,5.05,14.48,47.84626,-54.09684
2018-11-24 19:10:00+00:00,185.8965,5.0,14.24,47.84626,-54.09684
2018-11-24 19:20:00+00:00,191.9098,5.1,14.08,47.84626,-54.09684
2018-11-24 19:30:00+00:00,199.0331,5.12,14.0,47.84626,-54.09684
2018-11-24 19:40:00+00:00,203.7181,5.2,13.92,47.84626,-54.09684
2018-11-24 19:50:00+00:00,208.6014,5.29,13.84,47.84626,-54.09684
2018-11-24 20:00:00+00:00,214.9364,5.3,13.68,47.84626,-54.09684
2018-11-24 20:10:00+00:00,222.5081,5.3,13.53,47.84626,-54.09684
2018-11-24 20:20:00+00:00,229.3465,5.3,13.44,47.84626,-54.09684
2018-11-24 20:30:00+00:00,234.6031,5.38,13.44,47.84626,-54.09684
2018-11-24 20:40:00+00:00,240.0031,5.4,13.37,47.84626,-54.09684
2018-11-24 20:50:00+00:00,250.5365,5.38,13.37,47.84626,-54.09684
2018-11-24 21:00:00+00:00,258.7647,5.39,13.29,47.84626,-54.09684
2018-11-24 21:10:00+00:00,262.0747,5.39,13.13,47.84626,-54.09684
2018-11-24 21:20:00+00:00,270.3848,5.35,13.21,47.84626,-54.09684
2018-11-24 21:30:00+00:00,279.6464,5.05,13.21,47.84626,-54.09684
2018-11-24 21:40:00+00:00,285.9613,5.3,13.21,47.84626,-54.09684
2018-11-24 21:50:00+00:00,290.3748,5.3,13.21,47.84626,-54.09684
2018-11-24 22:00:00+00:00,302.7797,5.4,13.13,47.84626,-54.09684
2018-11-24 22:10:00+00:00,314.0997,5.5,13.05,47.84626,-54.09684
2018-11-24 22:20:00+00:00,320.5196,5.17,13.05,47.84626,-54.09684
2018-11-24 22:30:00+00:00,326.4547,5.05,13.05,47.84626,-54.09684
2018-11-24 22:40:00+00:00,337.2196,5.55,13.13,47.84626,-54.09684
2018-11-24 22:50:00+00:00,348.4697,5.68,13.13,47.84626,-54.09684
2018-11-24 23:00:00+00:00,355.0012,5.7,13.05,47.84626,-54.09684
2018-11-24 23:10:00+00:00,361.0763,5.5,12.97,47.84626,-54.09684
2018-11-24 23:20:00+00:00,373.3463,5.47,13.05,47.84626,-54.09684
2018-11-24 23:30:00+00:00,381.7195,5.72,13.05,47.84626,-54.09684
2018-11-24 23:40:00+00:00,381.3379,5.73,13.05,47.84626,-54.09684
2018-11-24 23:50:00+00:00,381.7328,5.76,13.05,47.84626,-54.09684
